SCP
0 0 0 0 0 0 0 0 0 0 0 0 0 0 0 -0 0 -0 0 0 0 0 0 0 0 0 0 0 0 0 0 0 0 0 0 0 0 0
0 0 0 0 0 0 0 0 0 0 0 0 0 0 0 0 0 0 0 0 0 0 0 0 0 0 0 0 0 0 0 0 0 0 0 0 0 0
0 0 0 0 0 0 0 0 0 0 0 0 0 0 0 0 0 0 0 0 0 0 0 0 0 0 0 0 0 0 0 0 0 0 0 0 0 0
0 0 0 0 0 0 0 0 0 0 0 0 0 0 0 0 0 0 0 0 0 0 0 0 0 0 0 0 0 0 0 0 0 0 0 0 0 0
0 0 0 0 0 0 0 0 0 0 0 0 0 0 0 0 0 0 0 0 0 0 0 0 0 0 0 0 0 0 0 0 0 0 0 0 0 0
0 0 0 0 0 0 0 0 0 0 0 0 0 0 0 0 0 0 0 0 0 0 0 0 0 0 0 0 0 0 0 0 0 0 0 0 0 0
0 0 0 0 0 0 0 0 -0 -0 -0 0 0 -0 0 0 0 0 0 0 0 0 0 0 0 0 0 0 0 0 0 0 0 0 0 0 0 0
0 0 0 0 0 0 0 0 0 -0 -0 -0 -0 -0 -0 -0 0 0 0 0 0 0 0 -0 0 0 0 0 0 0 0 0 0 0 0 0 0 0
0 0 0 0 0 0 0 0 0 0 0 0 0 0 0 0 -0 -0 -0 -0 -0 -0 0 0 0 0 0 0 0 0 0 0 0 0 0 0 0 0
0 0 0 0 0 -0 -0 0 -0 -0 -0 -0 -0 -0 0 0 0 0 0 0 -0 0 -0 0 0 0 0 0 0 0 0 0 0 0 0 -0 -0 -0
0 0 0 0 0 0 0 -0 -0 -0 -0 -0 -0 -0 -0 0 0 0 -0 -0 -0 -0 0 0 -0 0 0 0 0 0 -0 -0 -0 0 0 0 0 0
-0 -0 -0 0 -0 -0 -0 -0 -0 -0 -0 -0 -0 -0 -0 -0 -0 0 0 0 0 -0 -0 -0 -0 0 0 0 -0 -0 0 0 0 0 0 0 0 -0
-0 0 0 0 -0 0 0 0 0 0 -0 -0 -0 -0 -0 -0 0 0 0 -0 -0 -0 -0 -0 0 0 0 0 0 -0 0 0 -0 0 -0 -0 -0 -0
-0 -0 -0 -0 0 0 0 -0 -0 -0 0 0 -0 -0 -0 -0 -0 0 0 0 -0 -0 -0 -0 0 0 0 -0 -0 -0 -0 -0 -0 -0 -0 0 -0 -0
-0 -0 0 0 0 0 0 -0 -0 -0 -0 0 0 -0 -0 -0 -0 0 0 0 -0 -0 -0 -0 -0 -0 0 0 -0 0 -0 -0 0 0 0 0 0 0
-0 -0 -0 -0 0 -0 0 -0 -0 -0 0 0 0 -0 -0 -0 -0 0 0 -0 -0 -0 -0 -0 -0 0 -0 -0 -0 0 -0 -0 0 0 0 0 0 0
0 0 0 0 -0 0 0 0 0 0 0 0 0 0 -0 -0 -0 0 0 0 -0 -0 -0 -0 -0 -0 0 0 0 -0 -0 0 0 0 0 -0 0 0
0 -0 -0 -0 -0 -0 0 0 0 0 0 0 0 0 0 -0 0 0 0 0 0 -0 -0 0 -0 -0 -0 0 -0 0 0 0 0 0 0 0 0 0
-0 -0 -0 -0 -0 -0 -0 -0 -0 0 0 0 0 0 0 0 0 0 0 0 0 -0 -0 0 0 0 0 0 0 -0 0 0 0 0 0 0 0 0
0 0 -0 -0 -0 -0 0 -0 -0 0 -0 0 0 0 0 0 0 0 0 0 0 -0 -0 0 0 -0 -0 0 0 0 -0 0 0 0 0 0 0 0
0 0 0 0 0 0 0 0 -0 -0 -0 0 0 0 0 -0 -0 -0 -0 -0 -0 -0 -0 -0 -0 0 0 0 0 0 0 0 0 0 0 0 0 0
-0 0 0 0 0 0 0 0 0 0 -0 -0 -0 -0 -0 -0 -0 -0 -0 -0 -0 0 0 0 0 0 0 0 0 0 0 0 0 -0 0 0 0 0
-0 0 0 0 0 0 0 0 0 0 0 0 -0 -0 -0 -0 -0 -0 -0 -0 0 0 -0 0 0 0 0 0 0 0 0 0 0 0 0 0 0 0
Wind_Speed_500mb
51 52 53 54 54 54 56 58 55 55 55 57 50 49 67 68 61 48 40 43 45 40 35 27 19 22 36 34 35 36 37 37 39 43 50 45 39 39
57 59 56 56 50 49 53 58 59 58 51 42 51 61 61 54 40 34 29 28 29 23 12 14 18 22 29 29 28 27 28 36 40 45 44 41 43 41
57 58 54 54 56 59 57 51 46 45 50 43 44 47 43 35 25 17 14 14 13 8 3 3 6 7 8 13 17 23 28 33 37 40 38 38 36 34
61 58 59 56 59 57 47 41 39 42 42 41 41 37 22 14 11 11 10 12 11 10 7 7 5 7 10 12 15 16 20 24 29 33 33 29 31 31
62 54 50 58 52 42 27 33 39 40 41 32 20 8 2 5 6 11 13 14 12 10 12 11 9 5 1 3 7 8 10 17 21 24 25 22 18 23
49 39 44 41 34 19 25 31 23 17 17 10 5 9 8 11 15 19 19 20 23 22 17 11 12 10 13 4 4 3 7 7 6 7 9 12 16 20
36 26 20 16 17 15 16 22 23 23 23 21 20 19 20 20 25 27 24 24 25 20 20 18 13 10 12 12 14 18 15 11 8 7 9 12 18 19
10 1 9 17 26 22 24 28 33 32 30 28 28 28 34 30 23 23 23 25 16 20 13 17 14 13 13 14 19 18 17 12 8 9 12 16 14 13
11 11 16 23 34 35 38 35 31 29 29 28 26 24 24 25 20 18 14 15 25 21 2 8 11 8 11 16 22 20 14 9 8 12 12 9 10 11
18 20 17 19 29 35 40 48 53 53 45 37 35 28 23 18 17 14 9 8 22 34 9 6 12 5 8 12 20 18 15 10 13 14 11 9 10 12
33 27 20 18 20 31 31 35 39 43 43 35 35 32 28 25 18 13 20 15 21 36 18 9 13 5 3 9 20 20 14 7 11 13 7 6 9 10
31 32 24 20 16 15 18 19 20 21 30 34 32 33 35 35 35 38 33 30 31 26 36 11 9 4 2 6 16 15 10 10 12 10 8 4 4 11
34 23 25 42 37 29 23 20 15 10 6 22 28 26 24 24 24 27 29 33 34 38 39 16 12 7 3 5 6 11 14 14 13 10 7 5 5 6
50 48 42 38 36 35 31 35 37 8 3 11 17 25 22 23 24 24 22 30 34 34 42 31 14 16 11 8 8 11 15 19 12 10 8 6 6 10
45 41 39 38 32 28 26 28 27 37 34 24 14 24 24 22 21 21 21 26 32 36 39 31 24 14 15 13 14 11 12 20 17 12 10 11 14 18
38 36 34 34 33 28 22 24 28 35 45 25 20 25 34 30 26 18 19 18 25 27 36 33 24 17 12 14 15 16 18 10 16 15 15 16 23 21
37 42 32 34 31 32 30 32 26 28 42 26 16 21 30 33 32 19 16 20 30 33 33 29 18 20 13 16 17 14 15 16 14 12 12 21 27 29
41 42 41 36 39 41 37 39 33 28 35 36 29 26 29 28 28 24 18 18 25 31 39 22 5 3 20 23 20 15 12 15 13 10 14 24 36 42
49 46 43 42 41 39 41 40 44 31 32 36 33 34 34 28 29 24 25 25 29 35 35 23 13 15 22 31 28 25 17 17 17 20 23 30 33 36
47 46 42 36 35 35 37 39 37 40 33 32 32 29 28 30 30 23 23 24 27 33 30 22 21 13 17 29 31 26 22 23 26 29 29 30 35 37
38 40 39 42 40 36 36 38 38 51 44 35 34 34 32 31 32 28 23 23 24 30 39 29 19 15 17 27 28 23 19 21 23 31 36 33 42 44
29 24 23 22 25 28 33 34 34 41 49 42 37 35 41 36 33 29 23 24 22 24 29 29 19 15 18 26 29 29 28 23 20 17 23 24 28 42
39 42 39 28 24 26 29 37 38 33 41 52 46 41 41 42 34 29 26 22 21 21 21 24 19 21 25 28 34 38 40 42 43 41 48 40 45 54
Wind_Direction_500mb
316 313 312 308 306 304 295 294 301 309 309 310 312 307 308 310 315 318 322 326 331 332 333 321 269 241 218 196 172 166 172 189 196 200 209 217 229 236
312 309 306 310 306 302 299 295 292 297 301 304 298 303 307 311 315 318 322 326 332 330 298 272 226 179 189 196 182 185 197 205 210 221 230 242 247 249
306 308 309 305 304 305 303 302 298 290 292 297 301 309 311 314 311 317 325 338 350 344 349 126 159 175 173 195 215 218 221 229 233 236 241 255 258 257
302 303 306 306 303 306 307 300 295 294 295 297 305 310 313 310 321 324 352 360 21 25 357 334 296 269 258 246 233 225 226 236 247 254 259 262 264 261
299 304 306 306 313 309 300 295 299 300 298 300 300 323 60 73 44 36 32 37 45 50 45 60 66 61 19 256 256 257 262 260 256 252 247 251 259 265
297 290 305 312 315 308 303 304 317 354 3 14 68 102 93 61 50 52 55 62 66 63 63 53 42 50 31 40 102 61 354 333 306 274 277 277 274 276
273 302 316 353 23 42 42 51 55 55 58 74 81 77 75 74 65 56 51 58 62 52 58 53 42 48 44 48 22 358 358 356 355 339 308 304 307 298
258 239 47 36 29 47 66 69 70 68 72 74 74 69 72 64 48 61 61 59 48 33 37 44 32 40 44 45 14 5 360 7 6 353 339 323 320 320
161 124 78 51 39 57 65 66 67 71 73 74 69 57 57 62 59 56 54 52 36 21 292 21 10 23 39 24 14 11 10 16 5 355 351 351 355 350
171 148 125 78 58 56 68 71 70 67 68 71 69 64 53 42 34 29 34 39 23 17 53 42 12 32 29 18 8 12 11 20 18 17 21 33 29 28
133 125 112 80 65 61 74 78 73 69 64 65 58 57 60 47 44 25 50 35 22 30 32 30 20 64 24 3 359 2 19 33 17 12 22 73 40 71
119 122 107 94 78 60 83 75 70 71 65 69 70 60 53 54 62 61 56 54 38 28 24 30 33 77 136 344 350 3 26 24 18 13 60 83 54 46
118 106 91 94 90 76 60 50 43 30 83 69 68 57 48 47 41 46 44 41 46 37 26 35 46 58 69 346 31 44 44 32 22 42 66 58 23 41
99 93 87 82 74 64 56 52 50 34 206 131 89 55 45 52 51 37 40 33 42 36 25 24 36 33 50 77 68 74 49 34 38 61 51 32 1 337
91 89 85 80 70 52 51 56 56 47 50 176 103 58 46 48 46 34 53 38 35 25 20 22 30 29 39 70 77 62 62 35 43 60 51 9 16 4
84 82 82 79 70 54 58 56 55 53 51 110 94 63 52 48 39 29 32 41 35 31 19 24 30 40 56 89 82 73 65 65 45 61 51 36 33 13
60 77 86 84 74 64 57 54 54 51 53 86 81 62 36 41 31 24 26 19 31 26 14 12 18 31 77 95 104 95 67 46 56 75 61 50 44 58
83 73 64 62 59 57 58 51 46 50 50 74 57 37 27 33 32 27 31 36 31 21 10 19 71 138 94 87 87 74 72 63 74 89 81 77 68 71
76 73 68 67 66 62 59 53 44 49 49 50 39 30 29 29 20 25 34 38 37 20 14 35 67 103 123 92 77 67 69 89 90 91 82 78 75 86
76 74 69 67 63 60 64 54 53 45 35 29 30 32 30 20 26 33 35 41 36 23 37 47 62 98 127 103 89 76 90 97 91 75 70 76 83 91
82 82 82 77 68 73 64 65 58 38 40 48 44 35 31 30 28 35 42 44 37 30 29 40 62 87 114 110 102 96 95 98 90 81 79 88 101 100
62 69 82 75 77 81 72 67 67 54 44 46 39 34 34 30 32 40 45 38 35 33 28 37 60 87 112 103 99 97 100 91 80 65 93 92 106 99
60 69 73 72 73 78 80 69 59 55 49 44 38 35 26 29 35 37 37 47 49 43 35 43 61 95 104 103 105 102 102 102 100 100 103 97 100 96
Wind_Speed_850mb
51 52 53 54 54 54 56 58 55 55 55 57 50 49 67 68 61 48 40 43 45 40 35 27 19 22 36 34 35 36 37 37 39 43 50 45 39 39
57 59 56 56 50 49 53 58 59 58 51 42 51 61 61 54 40 34 29 28 29 23 12 14 18 22 29 29 28 27 28 36 40 45 44 41 43 41
57 58 54 54 56 59 57 51 46 45 50 43 44 47 43 35 25 17 14 14 13 8 3 3 6 7 8 13 17 23 28 33 37 40 38 38 36 34
61 58 59 56 59 57 47 41 39 42 42 41 41 37 22 14 11 11 10 12 11 10 7 7 5 7 10 12 15 16 20 24 29 33 33 29 31 31
62 54 50 58 52 42 27 33 39 40 41 32 20 8 2 5 6 11 13 14 12 10 12 11 9 5 1 3 7 8 10 17 21 24 25 22 18 23
49 39 44 41 34 19 25 31 23 17 17 10 5 9 8 11 15 19 19 20 23 22 17 11 12 10 13 4 4 3 7 7 6 7 9 12 16 20
36 26 20 16 17 15 16 22 23 23 23 21 20 19 20 20 25 27 24 24 25 20 20 18 13 10 12 12 14 18 15 11 8 7 9 12 18 19
10 1 9 17 26 22 24 28 33 32 30 28 28 28 34 30 23 23 23 25 16 20 13 17 14 13 13 14 19 18 17 12 8 9 12 16 14 13
11 11 16 23 34 35 38 35 31 29 29 28 26 24 24 25 20 18 14 15 25 21 2 8 11 8 11 16 22 20 14 9 8 12 12 9 10 11
18 20 17 19 29 35 40 48 53 53 45 37 35 28 23 18 17 14 9 8 22 34 9 6 12 5 8 12 20 18 15 10 13 14 11 9 10 12
33 27 20 18 20 31 31 35 39 43 43 35 35 32 28 25 18 13 20 15 21 36 18 9 13 5 3 9 20 20 14 7 11 13 7 6 9 10
31 32 24 20 16 15 18 19 20 21 30 34 32 33 35 35 35 38 33 30 31 26 36 11 9 4 2 6 16 15 10 10 12 10 8 4 4 11
34 23 25 42 37 29 23 20 15 10 6 22 28 26 24 24 24 27 29 33 34 38 39 16 12 7 3 5 6 11 14 14 13 10 7 5 5 6
50 48 42 38 36 35 31 35 37 8 3 11 17 25 22 23 24 24 22 30 34 34 42 31 14 16 11 8 8 11 15 19 12 10 8 6 6 10
45 41 39 38 32 28 26 28 27 37 34 24 14 24 24 22 21 21 21 26 32 36 39 31 24 14 15 13 14 11 12 20 17 12 10 11 14 18
38 36 34 34 33 28 22 24 28 35 45 25 20 25 34 30 26 18 19 18 25 27 36 33 24 17 12 14 15 16 18 10 16 15 15 16 23 21
37 42 32 34 31 32 30 32 26 28 42 26 16 21 30 33 32 19 16 20 30 33 33 29 18 20 13 16 17 14 15 16 14 12 12 21 27 29
41 42 41 36 39 41 37 39 33 28 35 36 29 26 29 28 28 24 18 18 25 31 39 22 5 3 20 23 20 15 12 15 13 10 14 24 36 42
49 46 43 42 41 39 41 40 44 31 32 36 33 34 34 28 29 24 25 25 29 35 35 23 13 15 22 31 28 25 17 17 17 20 23 30 33 36
47 46 42 36 35 35 37 39 37 40 33 32 32 29 28 30 30 23 23 24 27 33 30 22 21 13 17 29 31 26 22 23 26 29 29 30 35 37
38 40 39 42 40 36 36 38 38 51 44 35 34 34 32 31 32 28 23 23 24 30 39 29 19 15 17 27 28 23 19 21 23 31 36 33 42 44
29 24 23 22 25 28 33 34 34 41 49 42 37 35 41 36 33 29 23 24 22 24 29 29 19 15 18 26 29 29 28 23 20 17 23 24 28 42
39 42 39 28 24 26 29 37 38 33 41 52 46 41 41 42 34 29 26 22 21 21 21 24 19 21 25 28 34 38 40 42 43 41 48 40 45 54
Wind_Direction_850mb
316 313 312 308 306 304 295 294 301 309 309 310 312 307 308 310 315 318 322 326 331 332 333 321 269 241 218 196 172 166 172 189 196 200 209 217 229 236
312 309 306 310 306 302 299 295 292 297 301 304 298 303 307 311 315 318 322 326 332 330 298 272 226 179 189 196 182 185 197 205 210 221 230 242 247 249
306 308 309 305 304 305 303 302 298 290 292 297 301 309 311 314 311 317 325 338 350 344 349 126 159 175 173 195 215 218 221 229 233 236 241 255 258 257
302 303 306 306 303 306 307 300 295 294 295 297 305 310 313 310 321 324 352 360 21 25 357 334 296 269 258 246 233 225 226 236 247 254 259 262 264 261
299 304 306 306 313 309 300 295 299 300 298 300 300 323 60 73 44 36 32 37 45 50 45 60 66 61 19 256 256 257 262 260 256 252 247 251 259 265
297 290 305 312 315 308 303 304 317 354 3 14 68 102 93 61 50 52 55 62 66 63 63 53 42 50 31 40 102 61 354 333 306 274 277 277 274 276
273 302 316 353 23 42 42 51 55 55 58 74 81 77 75 74 65 56 51 58 62 52 58 53 42 48 44 48 22 358 358 356 355 339 308 304 307 298
258 239 47 36 29 47 66 69 70 68 72 74 74 69 72 64 48 61 61 59 48 33 37 44 32 40 44 45 14 5 360 7 6 353 339 323 320 320
161 124 78 51 39 57 65 66 67 71 73 74 69 57 57 62 59 56 54 52 36 21 292 21 10 23 39 24 14 11 10 16 5 355 351 351 355 350
171 148 125 78 58 56 68 71 70 67 68 71 69 64 53 42 34 29 34 39 23 17 53 42 12 32 29 18 8 12 11 20 18 17 21 33 29 28
133 125 112 80 65 61 74 78 73 69 64 65 58 57 60 47 44 25 50 35 22 30 32 30 20 64 24 3 359 2 19 33 17 12 22 73 40 71
119 122 107 94 78 60 83 75 70 71 65 69 70 60 53 54 62 61 56 54 38 28 24 30 33 77 136 344 350 3 26 24 18 13 60 83 54 46
118 106 91 94 90 76 60 50 43 30 83 69 68 57 48 47 41 46 44 41 46 37 26 35 46 58 69 346 31 44 44 32 22 42 66 58 23 41
99 93 87 82 74 64 56 52 50 34 206 131 89 55 45 52 51 37 40 33 42 36 25 24 36 33 50 77 68 74 49 34 38 61 51 32 1 337
91 89 85 80 70 52 51 56 56 47 50 176 103 58 46 48 46 34 53 38 35 25 20 22 30 29 39 70 77 62 62 35 43 60 51 9 16 4
84 82 82 79 70 54 58 56 55 53 51 110 94 63 52 48 39 29 32 41 35 31 19 24 30 40 56 89 82 73 65 65 45 61 51 36 33 13
60 77 86 84 74 64 57 54 54 51 53 86 81 62 36 41 31 24 26 19 31 26 14 12 18 31 77 95 104 95 67 46 56 75 61 50 44 58
83 73 64 62 59 57 58 51 46 50 50 74 57 37 27 33 32 27 31 36 31 21 10 19 71 138 94 87 87 74 72 63 74 89 81 77 68 71
76 73 68 67 66 62 59 53 44 49 49 50 39 30 29 29 20 25 34 38 37 20 14 35 67 103 123 92 77 67 69 89 90 91 82 78 75 86
76 74 69 67 63 60 64 54 53 45 35 29 30 32 30 20 26 33 35 41 36 23 37 47 62 98 127 103 89 76 90 97 91 75 70 76 83 91
82 82 82 77 68 73 64 65 58 38 40 48 44 35 31 30 28 35 42 44 37 30 29 40 62 87 114 110 102 96 95 98 90 81 79 88 101 100
62 69 82 75 77 81 72 67 67 54 44 46 39 34 34 30 32 40 45 38 35 33 28 37 60 87 112 103 99 97 100 91 80 65 93 92 106 99
60 69 73 72 73 78 80 69 59 55 49 44 38 35 26 29 35 37 37 47 49 43 35 43 61 95 104 103 105 102 102 102 100 100 103 97 100 96